sat.trackr.live / text

‹ back to catalog

STARLINK-31209

NORAD 58883 · 2024-020H

PAYLOAD ACTIVE UNKNOWN

§ Identity

Operator
Country
US
Launch date
2024-01-29
Launch site
AFWTR
Launch vehicle
Mass (kg)
RCS (m²)

Purposes: comms

External: N2YO · Heavens-Above · Gunter

§ Orbital elements

Epoch: 2026-05-25T04:51:12.034368Z

Period
93.85 min
Inclination
53.1594°
Eccentricity
0.0001015
Mean motion
15.34389806 rev/d
Perigee alt
462.0 km
Apogee alt
463.4 km
Semi-major
6,840.9 km
B*
3.8716e-5
RAAN
326.4562°
Arg perigee
105.3856°
Mean anomaly
254.7258°
Rev number
12,979

§ Raw data

STARLINK-312091 58883U 24020H   26145.20222262  .00000932  00000+0  38716-4 0  99982 58883  53.1594 326.4562 0001015 105.3856 254.7258 15.34389806129792

JSON: /api/v1/satellites/58883 · /tle

For live sub-satellite position, see the globe view (requires WebGL).

§ Visibility from observer

Set your observer location to see the next 7 days of passes ≥ 10°. The values pass through the URL so the page stays shareable.

No JS? Fill the form by hand. The geolocation button needs JavaScript.